Vertical_Velocity
7 9 10 11 11 12 13 13 13 12 11 11 15 22 29 35 31 26 22 20 13 5 -1 -1 -1 -1 -1 -1 -1 -0 1 3 4 5 6 6 5 5 5 6 6 6 6 6 6 5 4 2 2 1 2 2 2 3 4 4 4 4 4 4 3 3 3 2 1 1 1 0 0
3 5 7 11 14 16 18 19 18 17 16 17 19 24 31 38 43 46 47 45 29 12 1 0 1 2 2 2 2 2 2 3 4 4 5 5 5 4 4 5 5 6 6 7 7 6 6 5 3 3 2 3 4 5 5 5 6 6 6 5 5 4 4 2 1 1 1 1 3
6 7 9 10 13 17 21 23 22 21 20 19 21 21 21 23 34 44 51 49 36 24 14 8 5 3 3 4 6 6 5 5 5 6 6 6 6 6 6 6 6 7 7 7 7 7 7 6 4 3 3 4 6 7 7 7 6 7 8 7 6 7 7 6 5 3 3 4 5
12 12 11 5 2 6 12 19 22 22 22 20 18 15 13 14 21 28 32 31 29 27 24 20 13 8 4 4 6 9 10 9 7 5 5 5 5 5 6 6 7 7 6 6 5 5 4 4 2 1 -1 -2 2 6 7 3 1 1 3 5 4 7 12 13 10 6 3 4 2
12 13 11 3 -3 -2 3 12 20 25 26 24 20 17 15 15 16 14 11 9 11 15 20 24 25 25 23 18 10 5 3 2 2 2 3 4 3 2 2 3 3 3 3 3 3 2 0 -2 -1 0 4 10 9 6 1 -5 -7 -4 0 4 2 5 10 12 10 5 1 0 -1
12 17 18 12 6 5 9 16 21 26 28 25 20 17 15 13 9 3 -2 -6 -3 4 13 21 26 33 37 37 23 7 -5 -9 -7 -3 1 3 3 4 4 4 4 5 6 7 7 4 3 5 12 15 18 25 23 14 4 -5 -4 0 4 6 4 4 5 8 5 -1 -6 -5 -0
18 23 24 19 14 12 13 16 19 19 15 10 5 2 -0 -1 -5 -8 -10 -9 -8 -6 -3 0 4 9 16 24 24 17 9 3 1 -2 -4 -5 -6 -6 -5 -2 2 5 8 9 9 6 4 8 21 25 24 23 21 17 11 4 6 7 7 5 2 -1 -2 -1 -3 -7 -10 -6 2
9 11 11 8 5 4 4 5 4 2 -1 -5 -7 -9 -10 -10 -6 -4 -2 -1 -2 -5 -7 -7 -5 -2 1 4 8 13 14 11 7 2 -3 -7 -10 -11 -10 -8 -3 0 2 2 1 -3 -6 -7 -1 5 10 16 17 12 6 3 6 8 7 4 -0 -2 -1 3 -0 -4 -5 1 3
-5 -5 -4 -6 -7 -6 -5 -6 -6 -7 -7 -7 -7 -7 -8 -7 3 9 13 12 9 5 1 -1 -2 -3 -3 -3 -0 3 6 6 5 5 5 3 1 -1 -1 1 2 1 -2 -7 -9 -12 -14 -16 -14 -11 -5 3 5 2 -3 -5 -1 2 4 3 1 -0 1 4 5 4 3 6 4
-11 -11 -11 -11 -9 -8 -7 -9 -9 -8 -8 -7 -6 -6 -5 -4 2 7 10 11 10 9 8 6 6 5 4 3 2 2 3 3 3 4 7 9 12 12 12 13 11 9 5 0 -2 -4 -7 -9 -9 -7 -4 -1 0 -1 -3 -3 -2 -1 -1 -1 -1 -0 0 1 4 5 5 6 4
-10 -9 -8 -6 -2 -2 -2 -4 -5 -5 -6 -7 -6 -5 -4 -3 -3 -2 -1 1 1 2 2 2 3 4 5 7 7 6 5 5 6 6 7 9 12 14 16 18 17 15 13 10 8 5 2 -1 -2 -2 -1 -1 -1 -1 -1 -1 -1 -2 -4 -5 -4 -3 -3 -3 0 2 2 2 1
-5 -4 -3 -1 2 4 5 5 3 0 -1 -1 0 0 -0 -2 -2 -2 -2 -1 -1 -2 -2 -2 -1 -1 0 1 2 3 4 5 5 6 7 7 8 8 9 10 11 13 14 14 12 10 7 4 2 1 1 0 0 0 -0 -1 -1 -2 -4 -5 -5 -4 -4 -4 -2 -1 -2 -2 -1
-3 -3 -2 -1 0 2 4 4 4 3 4 5 7 6 3 -0 -2 -2 -2 -1 -1 -0 -1 -1 -1 -1 -1 -1 -0 1 2 3 4 4 4 3 2 1 -1 -1 -0 2 6 9 10 10 9 7 4 3 2 2 2 2 1 -0 0 1 2 3 1 1 0 0 0 -1 -2 -1 1
-3 -3 -3 -3 -2 -1 -0 0 1 3 4 6 7 7 5 1 -2 -2 -2 -2 -1 -1 -1 -2 -2 -3 -3 -3 -1 0 2 3 4 4 4 2 2 1 -0 -3 -3 -3 -2 -0 1 3 5 5 4 4 3 3 3 2 3 3 5 9 12 14 12 9 6 4 2 2 1 2 4
-2 -2 -3 -3 -3 -3 -2 -2 -0 2 4 5 5 6 7 6 5 4 2 0 -1 -2 -3 -3 -4 -4 -4 -4 -2 0 2 4 4 4 3 2 3 3 2 -0 -1 -1 -2 -3 -3 -2 -1 0 1 2 2 2 1 2 2 4 7 10 14 15 13 10 6 5 5 6 7 7 8
1 1 0 0 -0 -0 -0 0 1 2 3 3 4 6 8 10 10 10 9 7 4 3 2 1 0 -0 0 1 1 1 2 4 4 3 1 1 2 2 2 3 3 2 1 -1 -1 -2 -2 -2 -1 -1 -0 -0 -0 -0 1 2 5 8 9 9 8 6 5 5 6 7 8 9 9
3 3 3 3 3 3 4 4 5 5 5 5 5 6 8 9 10 10 10 9 8 7 7 6 5 6 6 6 6 5 5 4 3 2 1 -0 -0 1 2 3 2 1 0 -1 -1 -2 -2 -2 -2 -2 -2 -1 -1 -1 -1 0 3 4 4 3 3 3 3 4 4 5 6 6 6
2 3 3 3 3 4 4 5 6 7 7 6 6 6 7 8 8 8 8 8 7 7 7 6 6 6 6 5 6 7 7 5 3 2 1 0 -0 0 1 1 0 -1 -2 -2 -3 -3 -3 -2 -2 -2 -1 -1 -1 -1 -1 -0 1 1 1 1 1 1 1 0 2 4 4 4 4
0 1 1 2 2 2 2 3 4 4 5 5 5 5 5 5 6 6 6 6 6 6 6 5 5 4 4 3 3 3 4 4 4 3 2 1 0 0 1 1 -0 -0 0 -1 -2 -3 -3 -2 -2 -1 -1 -1 -0 -0 -0 -0 -1 -1 -1 -1 -1 -2 -2 -3 -1 -0 0 0 1
-1 -0 0 0 1 1 1 1 1 1 1 1 1 1 1 1 1 2 3 3 4 4 5 5 4 4 3 2 2 2 1 1 1 0 0 0 2 3 3 2 1 1 1 -0 -2 -2 -2 -2 -1 -1 -0 -0 0 0 -0 -1 -1 -2 -2 -3 -3 -4 -4 -5 -4 -4 -4 -4 -4
-1 -1 -1 -1 -1 -1 -1 -1 -1 -1 -1 -2 -1 -1 -1 -1 -1 -1 -0 -0 0 1 2 2 2 2 1 1 0 -0 -0 -1 -1 0 2 4 9 10 9 6 4 3 2 1 -0 -1 -1 -1 -1 -1 0 0 1 0 -0 -1 -2 -3 -3 -4 -5 -5 -5 -6 -6 -6 -6 -6 -6
-1 -1 -1 -1 -2 -2 -2 -3 -3 -3 -3 -3 -2 -2 -1 -1 -1 -1 -1 -2 -2 -2 -2 -2 -2 -2 -2 -2 -3 -2 -2 -3 -1 1 2 4 7 9 10 7 4 3 3 3 3 4 4 3 2 1 1 1 1 1 0 -0 -1 -2 -3 -4 -5 -5 -5 -6 -6 -6 -6 -6 -6
-1 -1 -1 -1 -2 -2 -2 -3 -3 -3 -3 -3 -3 -3 -3 -2 -2 -2 -2 -2 -3 -3 -3 -4 -4 -4 -4 -5 -5 -5 -5 -4 -4 -3 -3 -3 -2 0 2 2 0 -0 -0 -0 3 9 13 15 13 9 5 2 1 1 0 -0 -1 -1 -2 -3 -3 -4 -4 -4 -4 -4 -4 -4 -4
-1 -1 -1 -1 -1 -1 -2 -2 -2 -2 -2 -3 -3 -3 -3 -4 -4 -4 -3 -3 -3 -3 -4 -4 -4 -5 -5 -5 -6 -5 -5 -4 -4 -4 -3 -3 -3 -2 -2 -1 -2 -2 -2 -2 -0 2 6 10 12 11 8 5 3 2 2 2 1 -0 -1 -2 -2 -2 -2 -2 -2 -2 -2 -1 -1
-1 -1 -1 -1 -1 -1 -1 -1 -1 -0 -0 -0 -1 -1 -2 -2 -3 -3 -3 -4 -4 -3 -3 -3 -3 -3 -3 -3 -3 -4 -3 -3 -2 -2 -1 -1 -1 -1 -1 -1 -1 -1 -1 -1 1 2 2 3 5 6 6 3 2 2 3 4 5 4 2 0 -1 -1 -1 -1 -1 -0 -0 0 0
1 0 -0 -0 -0 -0 -0 -0 0 0 1 1 1 1 1 1 0 -0 -1 -1 -2 -2 -2 -2 -2 -2 -1 -1 -1 -1 -1 -1 -1 -0 0 1 1 0 0 -0 -0 0 0 0 0 1 2 3 3 3 3 3 3 2 1 1 2 3 3 1 1 -0 -0 -0 -0 -0 -0 -0 -0
2 2 1 1 1 1 1 1 1 1 1 2 2 2 2 2 3 3 3 2 2 2 1 1 0 0 -0 -0 0 -0 -0 -0 0 1 1 1 1 1 0 -0 -0 0 1 1 1 1 1 1 1 1 0 1 0 0 -0 0 1 1 1 0 0 -0 -0 -1 -0 -1 -1 -1 2
3 3 3 3 3 2 2 2 2 2 2 2 2 2 2 2 3 3 3 3 3 4 4 4 3 3 2 2 1 1 0 -0 -0 0 1 1 1 1 1 0 -0 -1 -1 -0 0 1 1 1 1 1 1 1 -0 -1 -2 -1 -1 -0 0 0 0 0 -0 -1 -1 -2 -2 -1 4
2 3 3 3 3 3 3 3 2 2 2 2 2 2 2 2 2 2 3 3 3 3 4 4 4 4 4 4 3 3 2 1 0 0 -0 -0 0 1 1 1 1 1 1 -1 -2 -2 -2 -1 0 1 2 1 0 -1 -2 -3 -3 -2 -1 0 1 1 1 -0 -1 -2 -3 -3 -0
0 1 2 2 2 3 3 3 2 2 2 2 2 2 2 2 2 2 2 3 3 3 3 3 3 3 3 3 4 3 3 3 2 1 1 0 0 0 0 1 2 2 2 2 0 -1 -1 -1 -0 1 1 1 0 -1 -2 -3 -4 -4 -3 -2 -1 1 1 1 0 -1 -2 -2 -2
-4 -3 -2 -1 -0 0 1 1 2 2 2 2 2 2 2 2 2 2 2 3 3 3 3 3 3 3 3 3 3 3 3 3 3 2 2 2 1 1 1 1 2 2 2 2 2 1 1 1 1 2 2 2 1 -0 -1 -2 -3 -4 -4 -4 -3 -2 -1 -0 -0 -0 -0 -0 -0
-8 -8 -7 -6 -6 -5 -4 -3 -2 -2 -1 -1 -0 0 1 1 2 2 2 3 3 4 4 4 4 4 3 3 3 3 3 3 2 2 2 2 2 2 2 2 2 2 2 1 1 1 1 1 1 2 2 2 2 1 -0 -1 -1 -2 -3 -4 -3 -3 -2 -2 -1 -1 0 1 1
-9 -10 -10 -10 -10 -9 -9 -8 -8 -7 -7 -6 -6 -5 -4 -3 -2 -2 -1 -0 1 1 2 2 3 3 3 3 4 4 3 3 3 2 2 2 2 2 2 3 3 3 2 1 1 1 1 1 1 1 2 1 1 0 0 0 0 -0 -1 -1 -1 -2 -2 -2 -2 -1 -0 0 1
-3 -5 -6 -7 -8 -9 -9 -9 -9 -10 -10 -10 -10 -10 -9 -9 -8 -8 -7 -6 -5 -4 -4 -3 -2 -1 -0 1 2 2 3 4 4 3 3 2 2 2 2 3 3 3 3 1 1 0 0 0 1 1 1 0 -0 -0 -0 0 0 0 0 0 1 0 -0 -1 -1 -1 -1 -0 -0
5 4 2 1 -0 -1 -2 -3 -4 -5 -6 -7 -8 -8 -9 -9 -10 -10 -9 -9 -8 -8 -7 -7 -7 -6 -5 -4 -3 -2 -1 1 2 3 3 2 2 2 2 3 4 4 4 2 1 0 0 0 1 1 0 -0 -1 -1 -0 0 -0 -0 0 1 1 1 1 1 1 0 -0 -0 -1
8 8 8 7 7 6 5 4 3 2 1 -0 -1 -2 -2 -3 -4 -5 -5 -5 -5 -5 -6 -6 -6 -6 -6 -7 -6 -5 -4 -4 -3 -1 0 1 1 1 1 3 5 6 5 4 2 1 0 0 0 -0 -1 -1 -1 -1 -0 -0 -1 -0 -0 1 1 2 2 2 2 1 0 -0 -1
6 7 7 7 7 7 7 7 6 6 5 5 4 4 4 3 2 2 1 0 -0 -1 -1 -1 -2 -3 -4 -4 -4 -4 -4 -4 -5 -4 -4 -2 -2 -2 -1 0 4 6 7 6 4 3 2 1 0 -0 -1 -2 -3 -2 -1 -1 -1 -0 0 1 1 2 2 2 2 1 1 -0 -1
2 2 3 3 4 4 4 5 5 5 5 6 6 5 5 5 5 4 4 4 3 2 2 2 2 1 -1 -1 -1 -1 -1 -1 -3 -4 -5 -4 -4 -4 -4 -3 0 4 7 7 5 4 4 3 2 0 -1 -2 -3 -3 -2 -2 -2 -1 -0 1 1 2 3 2 2 1 1 0 0
-3 -3 -3 -3 -2 -2 -1 -0 -0 0 1 2 2 3 3 3 4 3 3 4 3 3 2 3 4 3 2 2 1 1 1 2 1 -1 -3 -4 -4 -4 -5 -6 -4 -0 4 6 5 4 4 4 4 2 0 -2 -3 -3 -3 -3 -3 -2 -1 0 1 2 2 3 2 2 1 1 1
-5 -5 -5 -6 -6 -5 -5 -4 -4 -4 -4 -3 -3 -3 -2 -1 -1 -1 -0 1 0 0 0 1 2 3 3 3 3 2 3 4 4 2 0 -2 -2 -3 -3 -5 -5 -3 0 3 3 2 3 4 4 4 2 -0 -2 -2 -3 -3 -3 -3 -3 -1 1 2 2 2 2 2 2 1 1
-6 -6 -6 -6 -6 -6 -6 -6 -6 -6 -5 -5 -6 -6 -6 -5 -5 -5 -5 -4 -4 -4 -4 -3 -2 -0 1 1 1 2 3 4 5 5 4 2 1 -0 -1 -2 -3 -3 -1 1 1 0 0 2 3 4 3 2 -0 -1 -2 -2 -3 -4 -3 -1 1 2 1 1 1 2 2 2 1
Height
3038 3039 3039 3040 3041 3042 3043 3044 3045 3046 3047 3048 3049 3050 3051 3051 3050 3049 3049 3050 3051 3053 3055 3057 3059 3060 3062 3063 3065 3066 3068 3069 3071 3072 3073 3074 3075 3076 3078 3079 3080 3081 3082 3083 3084 3084 3085 3086 3086 3087 3088 3088 3089 3089 3090 3091 3091 3091 3091 3092 3092 3092 3093 3093 3093 3094 3095 3096 3096
3036 3037 3038 3039 3040 3041 3042 3043 3044 3045 3046 3046 3047 3048 3049 3050 3049 3050 3051 3052 3052 3052 3053 3056 3057 3059 3061 3062 3063 3065 3066 3068 3069 3070 3071 3072 3073 3075 3076 3077 3078 3079 3080 3081 3082 3082 3083 3084 3084 3085 3085 3086 3086 3087 3087 3088 3088 3088 3089 3089 3089 3089 3090 3090 3090 3091 3092 3092 3093
3035 3036 3036 3037 3038 3039 3041 3041 3043 3044 3045 3045 3046 3047 3047 3048 3048 3050 3051 3052 3053 3052 3052 3054 3056 3057 3059 3061 3062 3063 3065 3066 3067 3068 3070 3071 3072 3073 3074 3075 3076 3077 3078 3079 3079 3080 3081 3081 3081 3082 3082 3083 3083 3084 3084 3085 3085 3086 3086 3086 3086 3086 3086 3087 3087 3088 3089 3089 3090
3034 3035 3036 3036 3036 3036 3037 3039 3040 3041 3043 3044 3045 3046 3047 3048 3048 3049 3050 3051 3052 3052 3052 3053 3054 3055 3057 3058 3060 3061 3062 3063 3064 3066 3067 3068 3069 3071 3071 3072 3074 3075 3075 3076 3076 3077 3077 3078 3078 3078 3079 3079 3080 3080 3080 3081 3082 3082 3082 3083 3083 3083 3083 3084 3084 3085 3086 3086 3086
3033 3034 3035 3035 3035 3036 3036 3037 3038 3039 3041 3042 3043 3045 3046 3047 3047 3047 3048 3049 3050 3051 3052 3053 3053 3054 3055 3056 3057 3059 3060 3061 3061 3063 3064 3065 3066 3067 3068 3070 3070 3071 3072 3072 3073 3073 3074 3074 3074 3075 3075 3075 3075 3076 3077 3078 3079 3079 3079 3080 3080 3080 3081 3081 3081 3082 3083 3083 3083
3033 3034 3034 3035 3036 3037 3037 3038 3038 3039 3040 3041 3042 3043 3044 3045 3046 3046 3047 3048 3050 3051 3052 3053 3053 3054 3054 3055 3055 3056 3057 3059 3060 3061 3062 3063 3064 3065 3066 3067 3068 3068 3069 3069 3070 3071 3071 3071 3071 3071 3072 3072 3072 3072 3074 3075 3076 3076 3076 3076 3077 3077 3078 3078 3078 3079 3080 3080 3080
3032 3033 3033 3034 3035 3036 3037 3038 3038 3039 3039 3040 3040 3041 3043 3044 3045 3046 3047 3048 3049 3051 3052 3053 3053 3054 3054 3055 3055 3056 3057 3058 3060 3061 3061 3062 3063 3064 3065 3065 3066 3066 3066 3067 3067 3068 3068 3068 3068 3068 3069 3069 3069 3069 3070 3072 3072 3073 3073 3073 3074 3075 3076 3076 3076 3076 3077 3077 3077
3030 3030 3031 3031 3032 3033 3034 3035 3036 3036 3037 3038 3040 3041 3043 3044 3046 3046 3047 3047 3048 3049 3051 3051 3052 3053 3054 3055 3056 3056 3057 3058 3059 3059 3060 3060 3061 3061 3062 3063 3063 3063 3063 3063 3064 3064 3065 3065 3066 3066 3066 3066 3066 3067 3068 3069 3069 3069 3070 3070 3071 3072 3073 3072 3073 3074 3074 3073 3074
3028 3029 3030 3031 3031 3032 3033 3034 3034 3035 3037 3038 3040 3041 3043 3044 3046 3046 3047 3047 3047 3048 3049 3050 3050 3051 3052 3053 3054 3055 3056 3056 3057 3057 3057 3057 3058 3059 3059 3059 3059 3059 3059 3060 3060 3061 3062 3062 3063 3063 3064 3064 3064 3064 3065 3066 3066 3066 3066 3067 3067 3068 3069 3069 3069 3070 3070 3070 3070
3028 3030 3031 3031 3031 3033 3034 3035 3035 3036 3037 3039 3040 3041 3042 3044 3045 3046 3046 3047 3047 3048 3048 3049 3049 3050 3050 3051 3052 3053 3053 3054 3054 3054 3054 3055 3055 3055 3055 3056 3056 3056 3056 3057 3058 3058 3059 3059 3060 3060 3061 3061 3061 3061 3061 3062 3062 3063 3063 3063 3063 3064 3065 3065 3066 3066 3066 3066 3066
3028 3029 3030 3031 3032 3034 3035 3035 3036 3036 3038 3039 3040 3041 3042 3043 3044 3044 3045 3045 3046 3046 3047 3048 3048 3049 3050 3050 3051 3051 3052 3052 3052 3052 3053 3053 3053 3053 3054 3054 3055 3055 3055 3055 3055 3055 3055 3056 3056 3057 3057 3057 3057 3057 3058 3058 3059 3059 3059 3059 3060 3060 3061 3061 3062 3062 3062 3062 3062
3029 3030 3031 3032 3033 3034 3035 3035 3036 3037 3038 3039 3040 3041 3041 3042 3042 3042 3043 3043 3044 3044 3045 3046 3046 3047 3048 3048 3049 3050 3050 3051 3051 3051 3051 3051 3051 3051 3052 3052 3052 3052 3052 3052 3052 3052 3052 3052 3053 3053 3054 3054 3054 3054 3055 3055 3055 3056 3056 3056 3056 3056 3056 3057 3057 3058 3058 3059 3059
3029 3030 3031 3032 3033 3034 3035 3035 3036 3037 3038 3039 3039 3040 3040 3040 3041 3041 3041 3042 3042 3043 3043 3044 3044 3045 3046 3046 3047 3047 3048 3049 3049 3049 3049 3049 3049 3049 3049 3049 3049 3049 3049 3049 3049 3049 3049 3049 3049 3050 3050 3051 3051 3051 3051 3052 3052 3052 3053 3052 3052 3052 3052 3052 3053 3053 3054 3055 3055
3029 3030 3031 3032 3033 3033 3034 3035 3036 3037 3037 3038 3038 3039 3039 3039 3039 3039 3039 3039 3040 3040 3041 3041 3041 3042 3043 3044 3044 3045 3046 3046 3046 3046 3046 3047 3047 3046 3046 3046 3046 3046 3046 3046 3046 3046 3046 3046 3046 3047 3047 3048 3048 3048 3049 3049 3050 3050 3051 3050 3050 3049 3048 3048 3048 3049 3050 3050 3051
3028 3029 3030 3031 3032 3033 3033 3034 3035 3036 3036 3036 3037 3037 3037 3037 3037 3037 3037 3037 3037 3037 3038 3039 3039 3040 3040 3041 3042 3043 3043 3044 3044 3044 3044 3044 3044 3043 3043 3043 3043 3043 3044 3043 3043 3043 3043 3043 3043 3044 3044 3045 3045 3045 3046 3046 3047 3048 3048 3048 3047 3045 3044 3044 3045 3045 3045 3046 3046
3027 3028 3029 3030 3031 3031 3032 3033 3034 3034 3035 3035 3035 3035 3036 3036 3036 3035 3035 3035 3035 3036 3036 3037 3038 3038 3039 3039 3040 3040 3041 3041 3041 3041 3041 3041 3041 3041 3041 3041 3041 3041 3041 3041 3041 3041 3041 3040 3041 3041 3041 3041 3041 3042 3042 3043 3044 3045 3045 3044 3044 3043 3042 3041 3041 3041 3042 3042 3042
3026 3027 3028 3028 3029 3030 3031 3031 3032 3032 3032 3032 3033 3033 3033 3033 3033 3033 3033 3034 3034 3034 3035 3035 3036 3036 3037 3037 3038 3038 3039 3039 3039 3038 3039 3039 3039 3039 3039 3039 3039 3039 3039 3039 3038 3038 3038 3038 3038 3038 3038 3038 3039 3039 3039 3039 3040 3041 3041 3040 3040 3040 3039 3039 3039 3039 3039 3039 3039
3026 3026 3026 3027 3028 3028 3029 3029 3029 3030 3030 3030 3030 3031 3031 3031 3031 3031 3032 3032 3032 3032 3033 3033 3033 3034 3034 3035 3035 3036 3036 3036 3036 3036 3036 3036 3036 3036 3036 3037 3036 3036 3036 3036 3036 3036 3036 3036 3036 3036 3036 3036 3036 3036 3036 3036 3036 3036 3036 3036 3036 3036 3036 3037 3037 3038 3038 3038 3037
3025 3026 3026 3026 3027 3027 3027 3027 3028 3028 3028 3028 3029 3029 3029 3029 3029 3030 3030 3030 3031 3031 3031 3031 3031 3032 3032 3032 3032 3033 3033 3034 3034 3034 3034 3034 3034 3034 3034 3034 3034 3034 3035 3034 3034 3034 3034 3034 3034 3034 3034 3034 3034 3033 3033 3033 3033 3033 3033 3033 3034 3034 3034 3034 3035 3035 3036 3036 3036
3024 3025 3025 3026 3026 3026 3026 3026 3027 3027 3027 3027 3027 3027 3027 3027 3028 3028 3028 3028 3028 3029 3029 3029 3030 3030 3030 3030 3030 3030 3031 3031 3031 3031 3031 3032 3032 3032 3032 3032 3032 3032 3032 3032 3032 3032 3032 3032 3032 3032 3032 3031 3031 3031 3031 3031 3031 3031 3031 3031 3031 3032 3032 3032 3032 3033 3033 3033 3033
3024 3024 3024 3024 3025 3025 3025 3026 3026 3026 3026 3026 3026 3026 3026 3026 3026 3026 3026 3026 3027 3027 3027 3027 3027 3028 3028 3028 3028 3028 3028 3029 3029 3029 3029 3030 3031 3031 3030 3030 3029 3029 3029 3030 3030 3030 3030 3030 3030 3030 3030 3029 3029 3029 3028 3028 3028 3028 3029 3029 3029 3029 3030 3030 3030 3030 3031 3031 3031
3023 3023 3024 3024 3024 3024 3024 3025 3025 3025 3026 3026 3026 3026 3026 3026 3025 3025 3026 3026 3026 3026 3026 3026 3026 3026 3026 3026 3026 3026 3026 3027 3027 3027 3027 3027 3028 3028 3028 3028 3027 3027 3027 3028 3028 3028 3028 3028 3027 3027 3027 3027 3026 3026 3026 3026 3026 3026 3026 3026 3026 3026 3026 3027 3027 3027 3027 3028 3028
3023 3023 3023 3024 3024 3024 3024 3024 3024 3024 3025 3025 3025 3025 3025 3024 3024 3024 3024 3024 3025 3025 3025 3025 3025 3025 3025 3025 3025 3025 3025 3025 3025 3025 3025 3025 3025 3025 3025 3026 3026 3026 3026 3026 3026 3027 3027 3027 3026 3026 3025 3025 3024 3024 3024 3023 3023 3023 3023 3023 3023 3023 3024 3024 3024 3024 3025 3025 3025
3023 3023 3023 3023 3024 3024 3024 3024 3024 3024 3024 3024 3024 3024 3024 3024 3023 3023 3023 3023 3023 3023 3023 3023 3023 3023 3023 3023 3023 3023 3023 3023 3023 3023 3023 3023 3023 3023 3023 3024 3024 3024 3024 3025 3025 3025 3025 3025 3025 3024 3024 3023 3022 3022 3022 3021 3021 3021 3021 3021 3021 3021 3021 3021 3021 3022 3022 3022 3023
3022 3022 3022 3023 3023 3023 3023 3023 3023 3023 3023 3023 3023 3023 3023 3022 3022 3022 3022 3022 3022 3022 3022 3022 3022 3022 3022 3021 3021 3021 3021 3021 3021 3021 3021 3021 3021 3021 3022 3022 3022 3022 3022 3023 3023 3023 3022 3022 3022 3022 3021 3021 3021 3020 3020 3020 3020 3019 3019 3019 3019 3019 3019 3019 3019 3020 3020 3020 3021
3021 3021 3021 3021 3021 3021 3021 3021 3021 3021 3021 3021 3021 3021 3021 3021 3021 3021 3021 3021 3021 3021 3021 3020 3020 3020 3020 3020 3020 3019 3019 3019 3019 3019 3019 3019 3019 3019 3020 3020 3020 3020 3020 3020 3020 3020 3020 3020 3019 3019 3019 3019 3018 3018 3018 3017 3017 3018 3018 3017 3017 3017 3017 3017 3017 3018 3018 3019 3019
3019 3019 3019 3019 3019 3019 3019 3019 3019 3019 3019 3019 3019 3019 3019 3019 3019 3019 3019 3019 3019 3019 3019 3018 3018 3018 3018 3017 3017 3017 3017 3017 3017 3017 3017 3017 3017 3017 3017 3017 3017 3017 3017 3018 3018 3017 3017 3017 3017 3016 3016 3016 3016 3015 3015 3015 3015 3015 3015 3015 3015 3015 3016 3016 3016 3016 3016 3016 3017
3017 3017 3017 3017 3017 3017 3017 3017 3017 3017 3017 3017 3016 3016 3016 3016 3016 3016 3016 3016 3016 3016 3016 3016 3016 3016 3016 3015 3015 3014 3014 3014 3014 3014 3014 3014 3014 3014 3015 3015 3015 3015 3015 3015 3015 3015 3015 3015 3014 3014 3014 3013 3013 3012 3012 3012 3012 3013 3013 3013 3013 3013 3013 3013 3014 3014 3014 3014 3015
3016 3016 3016 3015 3015 3014 3014 3014 3014 3014 3014 3014 3014 3014 3014 3014 3013 3013 3013 3013 3013 3013 3013 3013 3013 3013 3013 3012 3012 3012 3011 3011 3011 3011 3011 3011 3011 3011 3012 3012 3012 3012 3012 3012 3012 3012 3012 3012 3012 3011 3011 3011 3010 3010 3010 3010 3010 3010 3010 3010 3011 3011 3011 3011 3011 3012 3012 3012 3012
3015 3015 3014 3014 3013 3012 3012 3012 3011 3011 3011 3011 3011 3011 3010 3010 3010 3010 3010 3010 3010 3010 3010 3010 3010 3010 3009 3009 3009 3009 3009 3008 3008 3008 3008 3008 3008 3008 3008 3009 3009 3009 3009 3009 3009 3009 3009 3009 3009 3009 3008 3008 3008 3007 3007 3007 3007 3007 3007 3007 3008 3008 3008 3009 3009 3009 3010 3010 3010
3013 3013 3012 3012 3011 3011 3011 3010 3009 3009 3008 3008 3007 3007 3007 3007 3006 3006 3006 3006 3006 3006 3006 3006 3006 3006 3006 3006 3006 3006 3006 3006 3005 3005 3005 3005 3005 3005 3005 3005 3006 3006 3006 3006 3006 3006 3006 3006 3006 3006 3006 3005 3005 3004 3004 3004 3004 3004 3004 3005 3005 3005 3006 3006 3006 3007 3007 3007 3008
3011 3011 3011 3010 3010 3009 3009 3008 3008 3007 3006 3006 3005 3005 3004 3004 3003 3003 3003 3002 3002 3002 3002 3002 3002 3002 3002 3002 3002 3002 3002 3002 3002 3002 3001 3001 3001 3001 3002 3002 3002 3002 3002 3002 3002 3002 3002 3002 3002 3002 3002 3002 3001 3001 3001 3001 3001 3001 3001 3001 3002 3002 3002 3003 3003 3004 3004 3005 3005
3008 3008 3008 3008 3007 3007 3007 3006 3006 3006 3005 3004 3004 3003 3002 3002 3001 3001 3000 3000 2999 2999 2998 2998 2998 2998 2997 2997 2997 2997 2997 2998 2998 2998 2998 2998 2998 2998 2998 2998 2998 2998 2998 2998 2998 2998 2998 2998 2998 2998 2998 2998 2998 2998 2998 2998 2998 2998 2998 2998 2999 2999 2999 3000 3000 3000 3001 3001 3002
3005 3005 3005 3005 3004 3004 3004 3003 3003 3003 3002 3002 3001 3001 3001 3000 2999 2999 2998 2998 2997 2996 2996 2995 2995 2994 2994 2994 2993 2993 2993 2993 2993 2993 2993 2993 2993 2994 2994 2994 2994 2995 2995 2994 2994 2994 2994 2994 2994 2994 2994 2994 2994 2994 2994 2994 2994 2994 2995 2995 2995 2996 2996 2996 2996 2997 2997 2998 2998
3002 3001 3001 3001 3001 3000 3000 3000 3000 2999 2999 2999 2998 2998 2998 2997 2997 2996 2996 2995 2995 2994 2994 2993 2992 2992 2991 2991 2990 2990 2989 2989 2989 2989 2989 2989 2989 2989 2989 2990 2990 2991 2991 2991 2990 2990 2990 2990 2990 2990 2990 2990 2990 2990 2990 2990 2990 2991 2991 2991 2991 2992 2992 2993 2993 2993 2994 2994 2995
2999 2999 2998 2998 2997 2997 2996 2996 2996 2995 2995 2995 2994 2994 2994 2993 2993 2992 2992 2991 2991 2991 2990 2990 2989 2989 2988 2987 2987 2986 2986 2986 2985 2985 2985 2984 2984 2984 2984 2985 2986 2986 2986 2986 2986 2986 2986 2986 2986 2986 2986 2986 2985 2986 2986 2986 2986 2986 2987 2987 2988 2988 2989 2989 2989 2990 2990 2990 2991
2996 2996 2995 2995 2994 2994 2993 2992 2992 2991 2991 2991 2990 2990 2990 2989 2989 2988 2987 2987 2987 2986 2986 2986 2985 2985 2984 2984 2983 2983 2983 2982 2981 2981 2981 2981 2980 2979 2979 2980 2981 2981 2981 2981 2981 2981 2981 2981 2981 2981 2981 2981 2981 2981 2981 2981 2981 2982 2982 2983 2984 2984 2985 2985 2986 2986 2986 2987 2987
2995 2994 2993 2992 2992 2991 2990 2990 2989 2988 2988 2987 2987 2986 2986 2985 2984 2984 2983 2983 2982 2982 2982 2981 2981 2981 2980 2980 2980 2979 2979 2979 2978 2977 2977 2976 2976 2975 2975 2975 2976 2976 2977 2977 2977 2977 2977 2977 2977 2976 2976 2976 2976 2976 2977 2977 2977 2977 2978 2979 2979 2980 2981 2981 2982 2982 2982 2983 2984
2994 2993 2992 2991 2990 2990 2989 2988 2987 2986 2985 2984 2984 2983 2982 2981 2981 2980 2979 2978 2978 2977 2977 2977 2977 2976 2976 2976 2975 2975 2975 2975 2974 2973 2973 2972 2971 2971 2971 2970 2971 2971 2972 2972 2972 2972 2972 2972 2972 2972 2971 2971 2971 2971 2972 2972 2972 2973 2973 2974 2975 2975 2976 2977 2978 2978 2979 2979 2980
2993 2992 2991 2990 2989 2988 2987 2986 2986 2984 2983 2982 2981 2981 2980 2979 2978 2977 2976 2975 2974 2973 2973 2972 2972 2972 2971 2971 2971 2971 2971 2971 2970 2970 2969 2968 2967 2967 2966 2966 2966 2966 2967 2967 2967 2967 2967 2967 2967 2967 2967 2966 2966 2966 2967 2967 2967 2968 2968 2969 2970 2971 2971 2972 2973 2974 2975 2975 2976
2992 2991 2990 2989 2987 2986 2986 2985 2984 2983 2981 2981 2979 2978 2977 2976 2975 2974 2973 2972 2971 2970 2969 2969 2968 2968 2967 2966 2966 2966 2966 2966 2966 2965 2965 2964 2963 2963 2962 2962 2961 2962 2962 2963 2962 2962 2962 2962 2962 2962 2962 2962 2962 2962 2962 2962 2962 2963 2963 2964 2965 2966 2966 2967 2968 2969 2970 2971 2971